Location: Newark
(16.3678°N, 77.8722°E)
Time: 21:15:10
(UTC+00:00)

S-56A Canister/Altair - Pass Details

Date: 17 December 2019
Orbit: 634 x 2498 km, 38.9° (Epoch: 17 January)

Event Time Altitude Azimuth Distance (km) Brightness Sun altitude
Rises 12:48:06 0° 278° (W) 5,563 13.1 -7.2°
Reaches altitude 10° 12:56:04 10° 248° (WSW) 4,021 12.9 -9.0°
Maximum altitude 12:58:28 11° 234° (SW) 3,756 12.5 -9.5°
Drops below altitude 10° 13:00:42 10° 220° (SW) 3,650 12.1 -10.0°
Sets 13:06:37 0° 186° (S) 4,110 11.7 -11.3°
